Location: Namasale
(1.5000°N, 32.6167°E)
Time: 00:49:33
(UTC+00:00)

N. Korean satellite - Pass Details

Date: 14 December 2021
Orbit: 447 x 491 km, 97.3° (Epoch: 22 January)

Event Time Altitude Azimuth Distance (km) Brightness Sun altitude
Rises 01:48:04 0° 48° (NE) 2,464 10.4 -27.1°
Reaches altitude 10° 01:51:55 10° 94° (E) 1,609 10.1 -26.2°
Maximum altitude 01:52:23 10° 101° (ESE) 1,599 10.1 -26.1°
Drops below altitude 10° 01:52:50 10° 109° (ESE) 1,614 10.2 -26.0°
Sets 01:56:45 0° 154° (SSE) 2,510 10.9 -25.2°
